Home   Weather   Senftenberg   Past weeks

Flag for Germany Past Weather in Senftenberg, Brandenburg, Germany — Yesterday and Last 2 Weeks

Now
23 °F

Passing clouds.


Feels Like: 16 °F
Forecast: 19 / 32 °F
Wind: 6 mph from South

Location: Dresden-Klotzsche

Current Time: Jan 21, 2017 at 5:28:39 am

Latest Report: Jan 21, 2017 at 4:50 am


Visibility: 4 mi

Pressure: 30.48 "Hg

Humidity: 93%

Dew Point: 21 °F

Location of SenftenbergLocation

Past Weather in Senftenberg — Graph

°F

Senftenberg Temperature Yesterday

Maximum temperature yesterday: 30 °F (at 2:50 pm)
Minimum temperature yesterday: 19 °F (at 12:20 am)
Average temperature yesterday: 25 °F

High & Low Weather Summary for the Past Weeks

 TemperatureHumidityPressure
High41 °F (Jan 13, 6:20 am)100% (Jan 7, 9:20 pm)30.72 "Hg (Jan 7, 9:20 pm)
Low10 °F (Jan 6, 4:50 am)57% (Jan 13, 7:20 am)29.12 "Hg (Jan 13, 5:50 am)
Average26 °F89%30.17 "Hg
* Reported Jan 6 3:20 am — Jan 21 3:50 am, Senftenberg, Weather by CustomWeather, © 2017

Note: Actual official high and low records may vary slightly from our data, if they occured in-between our weather recording intervals... More about our weather records

Advertising

Senftenberg Weather History for the Previous 24 Hours

Scroll right to see more
 ConditionsComfort  
Time TempWeatherWind HumidityBarometerVisibility
3:50 am
Sat, Jan 21
23 °FPassing clouds.3 mph93%30.48 "Hg4 mi
3:20 am23 °FIce fog.2 mph100%30.51 "Hg3 mi
2:50 am23 °FIce fog.2 mph93%30.51 "Hg3 mi
2:20 am25 °FIce fog.2 mph86%30.48 "Hg3 mi
1:50 am25 °FIce fog.2 mph86%30.48 "Hg3 mi
1:20 am25 °FPassing clouds.2 mph86%30.48 "Hg4 mi
12:50 am27 °FPassing clouds.2 mph86%30.51 "Hg4 mi
12:20 am27 °FPassing clouds.1 mph86%30.51 "Hg4 mi
11:50 pm
Fri, Jan 20
27 °FPassing clouds.1 mph86%30.51 "Hg4 mi
11:20 pm27 °FPassing clouds.2 mph93%30.51 "Hg4 mi
10:50 pm27 °FPassing clouds.2 mph86%30.51 "Hg4 mi
10:20 pm28 °FPassing clouds.1 mph86%30.51 "Hg4 mi
9:50 pm28 °FPassing clouds.2 mph86%30.51 "Hg4 mi
9:20 pm28 °FPassing clouds.3 mph86%30.51 "Hg4 mi
8:50 pm28 °FPassing clouds.2 mph86%30.51 "Hg4 mi
8:20 pm28 °FPassing clouds.2 mph86%30.54 "Hg4 mi
7:50 pm28 °FPassing clouds.2 mph86%30.54 "Hg4 mi
7:20 pm28 °FPassing clouds.No wind86%30.54 "Hg4 mi
6:50 pm28 °FPassing clouds.2 mph86%30.54 "Hg5 mi
6:20 pm28 °FPassing clouds.3 mph86%30.51 "Hg5 mi
5:50 pm28 °FPassing clouds.5 mph86%30.54 "Hg5 mi
5:20 pm30 °FPassing clouds.3 mph80%30.54 "Hg5 mi
4:50 pm30 °FPassing clouds.No wind80%30.54 "Hg5 mi
4:20 pm30 °FPartly sunny.1 mph80%30.54 "Hg6 mi
3:50 pm30 °FPartly sunny.No wind80%30.54 "Hg6 mi
3:20 pm30 °FPartly sunny.2 mph75%30.54 "Hg6 mi
2:50 pm30 °FPartly sunny.2 mph75%30.54 "HgN/A
2:20 pm28 °FPartly sunny.1 mph80%30.54 "HgN/A
1:50 pm28 °FPartly sunny.3 mph80%30.54 "HgN/A
1:20 pm28 °FPartly sunny.3 mph74%30.54 "HgN/A
12:50 pm28 °FPartly sunny.5 mph80%30.54 "HgN/A
12:20 pm27 °FPartly sunny.2 mph80%30.57 "HgN/A
11:50 am27 °FOvercast.2 mph80%30.57 "HgN/A
11:20 am25 °FOvercast.3 mph86%30.57 "HgN/A
10:50 am25 °FOvercast.5 mph86%30.57 "HgN/A
10:20 am25 °FPartly sunny.2 mph86%30.60 "HgN/A
9:50 am25 °FPartly sunny.5 mph86%30.57 "HgN/A
9:20 am25 °FPartly sunny.3 mph80%30.57 "HgN/A
8:50 am23 °FPartly sunny.3 mph86%30.57 "Hg6 mi
8:20 am23 °FPartly sunny.3 mph86%30.57 "Hg5 mi
7:50 am23 °FPassing clouds.6 mph86%30.57 "Hg5 mi
7:20 am23 °FPassing clouds.5 mph86%30.57 "Hg5 mi
6:50 am23 °FPassing clouds.5 mph86%30.57 "Hg5 mi
6:20 am23 °FPassing clouds.1 mph86%30.57 "Hg6 mi
5:50 am23 °FPassing clouds.1 mph86%30.57 "HgN/A
5:20 am23 °FPassing clouds.1 mph86%30.57 "HgN/A
Weather by CustomWeather, © 2017

See weather overviewHow to use our weather pages